Date String (YYYY-MM-DD hh:mm:ss) UTC,Instrument flags,absolute air pressure of the measurement (hPa),sample flow rate (lpm),inlet stack bypass flow (lpm),air temperature of the measurement (°C),ambient temperature measured by the external sensor (°C),aerosol sample conditioner tube jacket temperature (°C),OPC LED temperature (°C),internal box temperature (°C),relative humidity of the measurement (%),span deviation,mass concentration of particles derived from Lorenz-Mie calculation of OPC scattering (μg/m³),mass concentration of particles derived from Lorenz-Mie calculation of OPC scattering (μg/m³),mass concentration of particles derived from Lorenz-Mie calculation of OPC scattering (μg/m³)
DateTimeUTC,F1_M11,P_M11,Q1_M11,Q2_M11,T1_M11,T2_M11,T3_M11,T4_M11,T5_M11,U1_M11,ZSPAN_M11,X2_M11,X0_M11,X1_M11
2024-03-31 12:00:00,SystemResetWarning,0819.3,5.00,000.00,021.2,020.4,000.0,029.8,023.0,23.5,0000.7,0006.33,0012.28,0005.75
2024-03-31 12:01:00,SystemResetWarning,0819.3,5.00,000.00,021.2,020.4,000.0,029.8,023.0,23.6,0000.6,0006.36,0012.32,0005.80
2024-03-31 12:02:00,SystemResetWarning,0819.3,5.00,000.00,021.2,020.4,000.0,029.8,023.0,23.7,0000.3,0006.37,0011.72,0005.82
2024-03-31 12:03:00,SystemResetWarning,0819.2,5.00,000.00,021.1,020.4,000.0,029.8,023.0,23.7,-000.3,0006.36,0011.69,0005.84
2024-03-31 12:04:00,SystemResetWarning,0819.1,4.99,000.00,021.1,020.4,000.0,029.8,023.0,23.7,-000.2,0006.35,0011.51,0005.84
2024-03-31 12:05:00,SystemResetWarning,0819.2,4.99,000.00,021.1,020.4,000.0,029.8,023.0,23.6,0000.5,0006.38,0011.59,0005.86
2024-03-31 12:06:00,SystemResetWarning,0819.1,5.00,000.00,021.1,020.4,000.0,029.8,023.0,23.6,0000.7,0006.40,0011.80,0005.88
2024-03-31 12:07:00,SystemResetWarning,0819.1,5.01,000.00,021.1,020.4,000.0,029.8,023.0,23.6,0001.1,0006.43,0011.91,0005.91
2024-03-31 12:08:00,SystemResetWarning,0819.1,5.01,000.00,021.1,020.4,000.0,029.8,023.0,23.6,0001.1,0006.44,0012.57,0005.92
2024-03-31 12:09:00,SystemResetWarning,0819.1,5.00,000.00,021.1,020.4,000.0,029.8,023.0,23.7,0001.1,0006.48,0012.89,0005.91
2024-03-31 12:10:00,SystemResetWarning,0819.1,5.00,000.00,021.1,020.4,000.0,029.8,023.0,23.6,0001.1,0006.50,0012.49,0005.89
2024-03-31 12:11:00,SystemResetWarning,0819.1,5.00,000.00,021.1,020.4,000.0,029.7,023.0,23.7,0001.0,0006.44,0012.58,0005.84
2024-03-31 12:12:00,SystemResetWarning,0819.2,5.00,000.00,021.1,020.4,000.0,029.7,022.9,23.7,0001.2,0006.36,0012.01,0005.79
2024-03-31 12:13:00,SystemResetWarning,0819.2,4.99,000.00,021.1,020.3,000.0,029.7,022.9,23.7,0001.5,0006.35,0011.90,0005.76
2024-03-31 12:14:00,SystemResetWarning,0819.1,5.00,000.00,021.1,020.3,000.0,029.7,022.9,23.7,0001.4,0006.32,0012.21,0005.73
2024-03-31 12:15:00,SystemResetWarning,0819.2,4.99,000.00,021.1,020.4,000.0,029.7,022.9,23.7,0001.4,0006.29,0013.14,0005.71
2024-03-31 12:16:00,SystemResetWarning,0819.3,5.00,000.00,021.1,020.4,000.0,029.7,022.9,23.7,0001.0,0006.24,0013.17,0005.67
2024-03-31 12:17:00,SystemResetWarning,0819.4,5.00,000.00,021.1,020.4,000.0,029.7,022.9,23.7,0000.2,0006.20,0013.06,0005.62
2024-03-31 12:18:00,SystemResetWarning,0819.2,5.00,000.00,021.1,020.4,000.0,029.7,022.9,23.8,-000.4,0006.17,0013.11,0005.59
2024-03-31 12:19:00,SystemResetWarning,0819.2,5.01,000.00,021.0,020.4,000.0,029.7,022.9,23.9,-000.2,0006.12,0013.09,0005.55
2024-03-31 12:20:00,SystemResetWarning,0819.2,5.01,000.00,021.0,020.3,000.0,029.7,022.9,24.7,-000.4,0006.07,0012.73,0005.54
2024-03-31 12:21:00,SystemResetWarning,0819.3,5.00,000.00,021.0,020.3,000.0,029.7,022.9,24.6,-000.3,0006.08,0012.56,0005.54
2024-03-31 12:22:00,SystemResetWarning,0819.3,5.00,000.00,021.0,020.4,000.0,029.7,022.9,24.2,-000.6,0006.13,0012.18,0005.56
2024-03-31 12:23:00,SystemResetWarning,0819.3,4.99,000.00,021.0,020.3,000.0,029.7,022.9,24.2,-000.7,0006.16,0012.41,0005.57
2024-03-31 12:24:00,SystemResetWarning,0819.3,4.99,000.00,021.0,020.3,000.0,029.7,022.9,24.2,-000.7,0006.15,0012.50,0005.57
2024-03-31 12:25:00,SystemResetWarning,0819.4,4.99,000.00,021.0,020.3,000.0,029.7,022.9,24.2,-000.4,0006.15,0012.19,0005.57
2024-03-31 12:26:00,SystemResetWarning,0819.3,5.02,000.00,021.0,020.3,000.0,029.7,022.9,24.2,-000.1,0006.12,0011.17,0005.57
2024-03-31 12:27:00,SystemResetWarning,0819.3,5.00,000.00,021.0,020.3,000.0,029.7,022.9,24.3,0000.1,0006.13,0011.70,0005.56
2024-03-31 12:28:00,SystemResetWarning,0819.3,4.99,000.00,021.0,020.3,000.0,029.6,022.9,24.3,0000.2,0006.14,0011.95,0005.56
2024-03-31 12:29:00,SystemResetWarning,0819.3,4.99,000.00,021.0,020.3,000.0,029.6,022.9,24.3,0000.6,0006.12,0012.06,0005.54
2024-03-31 12:30:00,SystemResetWarning,0819.3,5.00,000.00,021.0,020.3,000.0,029.6,022.9,24.3,0000.4,0006.15,0011.90,0005.52
2024-03-31 12:31:00,SystemResetWarning,0819.3,5.01,000.00,021.0,020.3,000.0,029.6,022.8,24.3,0000.4,0006.14,0011.34,0005.51
2024-03-31 12:32:00,SystemResetWarning,0819.4,5.00,000.00,021.0,020.3,000.0,029.6,022.8,24.4,0000.6,0006.11,0011.37,0005.50
2024-03-31 12:33:00,SystemResetWarning,0819.4,4.99,000.00,021.0,020.3,000.0,029.6,022.8,24.4,0000.8,0006.08,0011.63,0005.50
2024-03-31 12:34:00,SystemResetWarning,0819.3,4.99,000.00,021.0,020.3,000.0,029.6,022.8,24.5,0000.8,0006.06,0011.32,0005.50
2024-03-31 12:35:00,SystemResetWarning,0819.3,5.02,000.00,021.0,020.3,000.0,029.6,022.8,24.5,0000.0,0006.06,0011.34,0005.51
2024-03-31 12:36:00,SystemResetWarning,0819.3,5.00,000.00,021.0,020.3,000.0,029.6,022.9,24.5,0000.0,0006.06,0011.45,0005.53
2024-03-31 12:37:00,SystemResetWarning,0819.3,4.99,000.00,021.0,020.3,000.0,029.6,022.8,24.5,-000.0,0006.11,0011.53,0005.55
2024-03-31 12:38:00,SystemResetWarning,0819.3,4.99,000.00,021.0,020.3,000.0,029.6,022.8,24.6,-000.0,0006.12,0010.96,0005.58
2024-03-31 12:39:00,SystemResetWarning,0819.3,5.01,000.00,021.0,020.3,000.0,029.6,022.8,24.6,-000.2,0006.12,0010.74,0005.61
2024-03-31 12:40:00,SystemResetWarning,0819.3,5.01,000.00,021.0,020.3,000.0,029.6,022.8,24.6,-000.3,0006.14,0010.45,0005.64
2024-03-31 12:41:00,SystemResetWarning,0819.3,5.01,000.00,021.0,020.3,000.0,029.6,022.8,24.6,-000.4,0006.16,0010.19,0005.69
2024-03-31 12:42:00,SystemResetWarning,0819.4,4.99,000.00,020.9,020.3,000.0,029.6,022.8,24.6,0000.2,0006.17,0010.12,0005.72
2024-03-31 12:43:00,SystemResetWarning,0819.4,5.00,000.00,021.0,020.3,000.0,029.6,022.8,24.6,0000.8,0006.19,0010.14,0005.76
2024-03-31 12:44:00,SystemResetWarning,0819.3,4.99,000.00,020.9,020.3,000.0,029.6,022.8,24.7,0001.5,0006.23,0009.74,0005.78
2024-03-31 12:45:00,SystemResetWarning,0819.3,5.00,000.00,020.9,020.3,000.0,029.6,022.8,24.7,0002.0,0006.25,0009.74,0005.81
2024-03-31 12:46:00,SystemResetWarning,0819.3,5.01,000.00,020.9,020.3,000.0,029.6,022.8,24.7,0002.4,0006.30,0009.94,0005.83
2024-03-31 12:47:00,SystemResetWarning,0819.3,5.00,000.00,020.9,020.3,000.0,029.6,022.8,24.7,0002.5,0006.33,0009.81,0005.85
2024-03-31 12:48:00,SystemResetWarning,0819.3,5.00,000.00,020.9,020.3,000.0,029.6,022.8,24.8,0002.5,0006.33,0009.87,0005.87
2024-03-31 12:49:00,SystemResetWarning,0819.4,4.99,000.00,020.9,020.3,000.0,029.6,022.8,24.8,0002.5,0006.35,0009.91,0005.89
2024-03-31 12:50:00,SystemResetWarning,0819.4,5.00,000.00,020.9,020.3,000.0,029.6,022.8,24.8,0002.5,0006.36,0009.80,0005.89
2024-03-31 12:51:00,SystemResetWarning,0819.3,5.00,000.00,020.9,020.3,000.0,029.5,022.8,24.8,0002.8,0006.35,0009.61,0005.89
2024-03-31 12:52:00,SystemResetWarning,0819.3,5.01,000.00,020.9,020.2,000.0,029.6,022.8,24.9,0002.5,0006.36,0009.52,0005.88
2024-03-31 12:53:00,SystemResetWarning,0819.3,5.00,000.00,020.9,020.2,000.0,029.5,022.8,24.9,0002.1,0006.37,0009.57,0005.88
2024-03-31 12:54:00,SystemResetWarning,0819.3,4.99,000.00,020.9,020.2,000.0,029.5,022.8,24.9,0001.5,0006.37,0009.90,0005.88
2024-03-31 12:55:00,SystemResetWarning,0819.3,4.99,000.00,020.9,020.2,000.0,029.5,022.8,25.0,0000.8,0006.33,0010.17,0005.88
2024-03-31 12:56:00,SystemResetWarning,0819.2,5.01,000.00,020.9,020.2,000.0,029.5,022.8,25.0,0000.7,0006.33,0010.95,0005.88
2024-03-31 12:57:00,SystemResetWarning,0819.2,5.00,000.00,020.9,020.2,000.0,029.5,022.8,25.3,0000.8,0006.34,0011.28,0005.90
2024-03-31 12:58:00,SystemResetWarning,0819.3,5.01,000.00,020.9,020.2,000.0,029.5,022.7,26.0,0000.6,0006.37,0011.53,0005.91
2024-03-31 12:59:00,SystemResetWarning,0819.3,5.01,000.00,020.9,020.2,000.0,029.5,022.7,25.5,0000.3,0006.42,0011.94,0005.92
